This is the latest recevied weather packets stored in our database for station/object EA7JCM-13. If no packets are shown the sender has not sent any weather packets the latest 10 day(s).
| Time | Temp. | Humidity | Pressure | Rain* | Wind** | Luminosity | Snow |
|---|---|---|---|---|---|---|---|
| 1777991104 | 19.44° C | 37% | 1009.4 hPa | 0 mm | - | - | - |
| 1777990802 | 19.44° C | 39% | 1009.4 hPa | 0 mm | - | - | - |
| 1777990503 | 18.33° C | 41% | 1009.5 hPa | 0 mm | - | - | - |
| 1777989903 | 18.89° C | 40% | 1009.5 hPa | 0 mm | - | - | - |
| 1777989603 | 18.89° C | 41% | 1009.6 hPa | 0 mm | - | - | - |
| 1777989303 | 18.33° C | 39% | 1009.7 hPa | 0 mm | - | - | - |
| 1777989003 | 18.33° C | 39% | 1009.8 hPa | 0 mm | - | - | - |
| 1777988703 | 18.89° C | 40% | 1009.7 hPa | 0 mm | - | - | - |
| 1777988403 | 18.89° C | 40% | 1009.8 hPa | 0 mm | - | - | - |
| 1777988103 | 18.89° C | 38% | 1009.9 hPa | 0 mm | - | - | - |
| 1777987802 | 18.33° C | 41% | 1009.9 hPa | 0 mm | - | - | - |
| 1777987503 | 18.89° C | 40% | 1009.9 hPa | 0 mm | - | - | - |
| 1777987203 | 18.89° C | 41% | 1009.9 hPa | 0 mm | - | - | - |
| 1777986903 | 18.89° C | 41% | 1010.1 hPa | 0 mm | - | - | - |
| 1777986603 | 18.33° C | 42% | 1010 hPa | 0 mm | - | - | - |
| 1777986303 | 18.33° C | 39% | 1010.1 hPa | 0 mm | - | - | - |
| 1777986003 | 18.33° C | 41% | 1010.2 hPa | 0 mm | - | - | - |
| 1777985703 | 18.33° C | 41% | 1010.1 hPa | 0 mm | - | - | - |
| 1777985402 | 18.33° C | 40% | 1010.4 hPa | 0 mm | - | - | - |
| 1777985103 | 18.33° C | 41% | 1010.3 hPa | 0 mm | - | - | - |
| 1777984803 | 17.78° C | 43% | 1010.2 hPa | 0 mm | - | - | - |
| 1777984503 | 17.78° C | 42% | 1010.4 hPa | 0 mm | - | - | - |
| 1777984203 | 18.33° C | 42% | 1010.2 hPa | 0 mm | - | - | - |
| 1777983903 | 18.33° C | 40% | 1010.2 hPa | 0 mm | - | - | - |
| 1777983603 | 18.89° C | 40% | 1010.6 hPa | 0 mm | - | - | - |
* Rain latest hour (hover to see other rain measurements)
** Current wind speed in m/s (hover to see current wind gust speed)